Elm City, NC

10:59 AM EST on December 08, 2016 (GMT -0500)
Rocky Mount-Wilson Regional

Weather History for KRWI - January, 2012

Change the Weather History Date:

Thursday, January 5, 2012

  Actual Average Record
Temperature  
Mean Temperature 41 °F -  
Max Temperature 55 °F 48 °F 75 °F (2004)
Min Temperature 27 °F 29 °F 11 °F (1981)
Degree Days  
Heating Degree Days 24    
Moisture  
Dew Point 22 °F    
Average Humidity 51    
Maximum Humidity 85    
Minimum Humidity 28    
Precipitation  
Precipitation 0.00 in - - ()
Sea Level Pressure  
Sea Level Pressure 30.06 in    
Wind  
Wind Speed 5 mph (WSW)    
Max Wind Speed 13 mph    
Max Gust Speed 20 mph    
Visibility 10 miles    
Events      
Averages and records for this station are not official NWS values.
T = Trace of Precipitation, MM = Missing Value Source: NWS Daily Summary

Daily Weather History Graph

Daily Weather History Graph

Search for Another Location

Airport or City:

Trip Planner

Search our weather history database for the weather conditions in past years. The results will help you decide how hot, cold, wet, or windy it might be!

Date:

Astronomy

Jan. 05, 2012 Rise Set
Actual Time 7:22 AM EST 5:11 PM EST
Civil Twilight 6:53 AM EST 5:39 PM EST
Nautical Twilight 6:22 AM EST 6:11 PM EST
Astronomical Twilight 5:51 AM EST 6:42 PM EST
Moon 2:13 PM EST (1/5) 4:05 AM EST (1/5)
Length of Visible Light 10h 45m
Length of Day
9h 49m
Waxing Gibbous, 87% of the Moon is Illuminated
Jan 5
Waxing Gibbous
Jan 9
Full
Jan 16
Last Quarter
Jan 23
New
Jan 30
First Quarter

Hourly Weather History & Observations

Time (EST) Temp. Windchill Dew Point Humidity Pressure Visibility Wind Dir Wind Speed Gust Speed Precip Events Conditions
12:53 AM 28.9 °F 22.8 °F 15.1 °F 56% 30.06 in 10.0 mi SSW 5.8 mph - N/A   Clear
1:53 AM 27.0 °F 20.5 °F 16.0 °F 63% 30.05 in 10.0 mi SSW 5.8 mph - N/A   Clear
2:53 AM 30.0 °F 25.2 °F 17.1 °F 59% 30.05 in 10.0 mi SW 4.6 mph - N/A   Clear
3:53 AM 32.0 °F 27.5 °F 16.0 °F 52% 30.04 in 10.0 mi SW 4.6 mph - N/A   Clear
4:53 AM 30.9 °F - 18.0 °F 59% 30.03 in 10.0 mi Calm Calm - N/A   Clear
5:53 AM 34.0 °F 31.0 °F 16.0 °F 48% 30.04 in 10.0 mi WSW 3.5 mph - N/A   Partly Cloudy
6:53 AM 33.1 °F 28.7 °F 18.0 °F 54% 30.04 in 10.0 mi WSW 4.6 mph - N/A   Partly Cloudy
7:53 AM 36.0 °F 33.3 °F 18.0 °F 48% 30.06 in 10.0 mi SW 3.5 mph - N/A   Mostly Cloudy
8:53 AM 43.0 °F 38.8 °F 19.9 °F 40% 30.09 in 10.0 mi WNW 6.9 mph - N/A   Mostly Cloudy
9:53 AM 48.0 °F - 21.9 °F 36% 30.10 in 10.0 mi WNW 10.4 mph 19.6 mph N/A   Clear
10:53 AM 50.0 °F - 24.1 °F 36% 30.09 in 10.0 mi WNW 12.7 mph - N/A   Clear
11:53 AM 51.8 °F - 23.0 °F 33% 30.06 in 10.0 mi WNW 12.7 mph 18.4 mph N/A   Clear
12:53 PM 53.1 °F - 24.1 °F 32% 30.03 in 10.0 mi West 10.4 mph - N/A   Clear
1:53 PM 54.0 °F - 23.0 °F 30% 30.02 in 10.0 mi West 9.2 mph - N/A   Clear
2:53 PM 55.0 °F - 21.9 °F 28% 30.02 in 10.0 mi WNW 10.4 mph - N/A   Clear
3:53 PM 54.0 °F - 21.9 °F 29% 30.03 in 10.0 mi West 6.9 mph - N/A   Clear
4:53 PM 51.1 °F - 23.0 °F 33% 30.05 in 10.0 mi West 3.5 mph - N/A   Clear
5:53 PM 45.0 °F - 25.0 °F 46% 30.07 in 10.0 mi Calm Calm - N/A   Clear
6:53 PM 37.9 °F - 27.0 °F 65% 30.09 in 10.0 mi Calm Calm - N/A   Clear
7:53 PM 34.0 °F - 27.0 °F 75% 30.09 in 10.0 mi Calm Calm - N/A   Clear
8:53 PM 34.0 °F - 27.0 °F 75% 30.09 in 10.0 mi Calm Calm - N/A   Clear
9:53 PM 30.9 °F - 25.0 °F 79% 30.10 in 10.0 mi Calm Calm - N/A   Clear
10:53 PM 28.9 °F - 25.0 °F 85% 30.09 in 10.0 mi Calm Calm - N/A   Clear
11:53 PM 34.0 °F 29.8 °F 25.0 °F 70% 30.08 in 10.0 mi SSW 4.6 mph - N/A   Clear